Location: Cave
(41.8160°N, 12.9350°E)
Time: 05:36:08
(UTC+02:00)

ISS - Pass Details

Date: 06 July 2019
Orbit: 409 x 418 km, 51.6° (Epoch: 22 July)

Event Time Altitude Azimuth Distance (km) Brightness Sun altitude
Exits shadow 04:51:43 - 281° (W) 2,262 -0.4 -8.0°
Reaches altitude 10° 04:54:02 10° 299° (WNW) 1,478 -1.2 -7.7°
Maximum altitude 04:56:28 19° 346° (NNW) 1,068 -1.4 -7.4°
Drops below altitude 10° 04:58:53 10° 33° (NNE) 1,479 0.5 -7.0°
Sets 05:01:25 0° 53° (NE) 2,341 2.8 -6.6°
